Weather History for Clinton, MO

Change the Weather History Date:

Saturday, January 12, 2013

  Actual Average (KSZL) Record (KSZL)
Temperature  
Mean Temperature 42 °F -  
Max Temperature 59 °F 36 °F 64 °F (2006)
Min Temperature 26 °F 20 °F -4 °F (1997)
Degree Days  
Heating Degree Days 22    
Moisture  
Dew Point 29 °F    
Average Humidity 74    
Maximum Humidity 100    
Minimum Humidity 44    
Precipitation  
Precipitation 0.00 in - - ()
Sea Level Pressure  
Sea Level Pressure 29.97 in    
Wind  
Wind Speed 10 mph (NNW)    
Max Wind Speed 17 mph    
Max Gust Speed 22 mph    
Visibility 8 miles    
Events Rain , Snow    
Averages and records for this station are not official NWS values.
T = Trace of Precipitation, MM = Missing Value Source: NWS Daily Summary

Daily Weather History Graph

Daily Weather History Graph

Search for Another Location

Airport:

Trip Planner

Search our weather history database for the weather conditions in past years. The results will help you decide how hot, cold, wet, or windy it might be!

Date:

Astronomy

Jan. 12, 2013 Rise Set
Actual Time 7:31 AM CST 5:15 PM CST
Civil Twilight 7:02 AM CST 5:44 PM CST
Nautical Twilight 6:29 AM CST 6:17 PM CST
Astronomical Twilight 5:57 AM CST 6:49 PM CST
Moon 7:52 AM CST (1/12) 6:43 PM CST (1/12)
Length of Visible Light 10h 42m
Length of Day
9h 44m
New Moon, 1% of the Moon is Illuminated
Jan 12
New Moon
Jan 18
First Quarter
Jan 26
Full
Feb 3
Last Quarter
Feb 10
New

Hourly Weather History & Observations

Time (CST) Temp. Windchill Dew Point Humidity Pressure Visibility Wind Dir Wind Speed Gust Speed Precip Events Conditions
12:15 AM 59.0 °F - 44.6 °F 59% 29.76 in 10.0 mi SSW 10.4 mph - N/A   Partly Cloudy
12:35 AM 57.2 °F - 44.6 °F 63% 29.77 in 10.0 mi SSW 10.4 mph - N/A   Clear
12:55 AM 57.2 °F - 44.6 °F 63% 29.77 in 10.0 mi SSW 10.4 mph - N/A   Mostly Cloudy
1:15 AM 57.2 °F - 46.4 °F 67% 29.78 in 10.0 mi SW 10.4 mph - N/A   Mostly Cloudy
1:35 AM 57.2 °F - 46.4 °F 67% 29.79 in 10.0 mi SW 9.2 mph - N/A   Mostly Cloudy
1:55 AM 57.2 °F - 46.4 °F 67% 29.82 in 10.0 mi WSW 12.7 mph 16.1 mph N/A   Mostly Cloudy
2:15 AM 57.2 °F - 44.6 °F 63% 29.83 in 10.0 mi West 11.5 mph - N/A   Overcast
2:35 AM 57.2 °F - 39.2 °F 51% 29.85 in 10.0 mi West 10.4 mph 16.1 mph N/A   Overcast
2:55 AM 55.4 °F - 33.8 °F 44% 29.86 in 9.0 mi West 10.4 mph - N/A   Mostly Cloudy
3:15 AM 51.8 °F - 32.0 °F 47% 29.86 in 7.0 mi WNW 8.1 mph - N/A   Scattered Clouds
3:35 AM 51.8 °F - 30.2 °F 44% 29.87 in 6.0 mi WNW 6.9 mph - N/A   Haze
3:55 AM 51.8 °F - 30.2 °F 44% 29.87 in 6.0 mi WNW 11.5 mph - N/A   Haze
4:15 AM 50.0 °F - 30.2 °F 47% 29.87 in 5.0 mi WNW 12.7 mph - N/A   Haze
4:35 AM 50.0 °F - 30.2 °F 47% 29.90 in 6.0 mi WNW 9.2 mph - N/A   Haze
4:55 AM 48.2 °F - 32.0 °F 54% 29.92 in 6.0 mi NW 11.5 mph - N/A   Haze
5:15 AM 44.6 °F 37.8 °F 33.8 °F 66% 29.93 in 7.0 mi NNW 15.0 mph - N/A   Overcast
5:35 AM 42.8 °F 35.4 °F 33.8 °F 70% 29.94 in 9.0 mi NNW 15.0 mph - N/A   Overcast
5:55 AM 39.2 °F 30.5 °F 30.2 °F 70% 29.94 in 10.0 mi NNW 16.1 mph 21.9 mph N/A   Overcast
6:15 AM 37.4 °F 28.5 °F 28.4 °F 70% 29.96 in 10.0 mi NNW 15.0 mph - N/A   Overcast
6:35 AM 37.4 °F 29.8 °F 28.4 °F 70% 29.97 in 10.0 mi NW 11.5 mph - N/A   Overcast
6:55 AM 37.4 °F 29.8 °F 28.4 °F 70% 29.97 in 10.0 mi NW 11.5 mph - N/A   Overcast
7:15 AM 35.6 °F 26.2 °F 28.4 °F 75% 29.97 in 10.0 mi North 15.0 mph - N/A   Mostly Cloudy
7:35 AM 35.6 °F 27.5 °F 26.6 °F 70% 29.98 in 10.0 mi NNW 11.5 mph - N/A   Partly Cloudy
7:55 AM 33.8 °F 27.0 °F 28.4 °F 81% 30.02 in 10.0 mi North 8.1 mph - N/A   Clear
8:15 AM 33.8 °F 27.0 °F 26.6 °F 75% 30.02 in 10.0 mi North 8.1 mph - N/A   Partly Cloudy
8:35 AM 33.8 °F 25.8 °F 26.6 °F 75% 30.05 in 10.0 mi North 10.4 mph - N/A   Scattered Clouds
8:55 AM 33.8 °F 25.3 °F 26.6 °F 75% 30.06 in 10.0 mi NNW 11.5 mph - N/A   Mostly Cloudy
9:15 AM 33.8 °F 25.3 °F 26.6 °F 75% 30.05 in 10.0 mi North 11.5 mph - N/A   Scattered Clouds
9:35 AM 33.8 °F 24.8 °F 28.4 °F 81% 30.04 in 9.0 mi North 12.7 mph - N/A   Scattered Clouds
9:55 AM 35.6 °F 27.1 °F 26.6 °F 70% 30.07 in 9.0 mi NNW 12.7 mph - N/A   Clear
10:15 AM 35.6 °F 27.5 °F 26.6 °F 70% 30.07 in 10.0 mi North 11.5 mph - N/A   Mostly Cloudy
10:35 AM 35.6 °F 28.6 °F 26.6 °F 70% 30.06 in 10.0 mi NNW 9.2 mph - N/A   Overcast
10:55 AM 33.8 °F 25.3 °F 26.6 °F 75% 30.04 in 9.0 mi North 11.5 mph - N/A   Overcast
11:15 AM 35.6 °F 28.6 °F 26.6 °F 70% 30.03 in 10.0 mi North 9.2 mph - N/A   Overcast
11:35 AM 35.6 °F 27.5 °F 26.6 °F 70% 30.02 in 10.0 mi North 11.5 mph - N/A   Overcast
11:55 AM 35.6 °F 28.0 °F 26.6 °F 70% 30.02 in 10.0 mi NNE 10.4 mph - N/A Rain Light Rain
12:15 PM 35.6 °F 27.1 °F 24.8 °F 65% 29.99 in 10.0 mi NNE 12.7 mph - N/A   Overcast
12:35 PM 35.6 °F 28.6 °F 24.8 °F 65% 30.01 in 9.0 mi North 9.2 mph - N/A   Mostly Cloudy
12:55 PM 33.8 °F 25.8 °F 24.8 °F 70% 30.01 in 10.0 mi North 10.4 mph - N/A   Overcast
1:15 PM 33.8 °F 27.0 °F 23.0 °F 65% 30.04 in 9.0 mi North 8.1 mph - N/A   Overcast
1:35 PM 33.8 °F 23.9 °F 24.8 °F 70% 30.00 in 9.0 mi North 15.0 mph - N/A   Overcast
1:55 PM 33.8 °F 24.8 °F 24.8 °F 70% 29.99 in 9.0 mi NE 12.7 mph - N/A   Overcast
2:15 PM 33.8 °F 24.8 °F 24.8 °F 70% 29.98 in 9.0 mi North 12.7 mph - N/A   Overcast
2:35 PM 32.0 °F 20.8 °F 24.8 °F 75% 29.96 in 9.0 mi NNE 17.3 mph - N/A   Overcast
2:55 PM 32.0 °F 21.6 °F 24.8 °F 75% 29.98 in 10.0 mi NNE 15.0 mph 18.4 mph N/A   Overcast
3:15 PM 32.0 °F 22.5 °F 24.8 °F 75% 29.98 in 9.0 mi NNE 12.7 mph - N/A   Overcast
3:35 PM 32.0 °F 23.6 °F 24.8 °F 75% 30.01 in 9.0 mi North 10.4 mph 17.3 mph N/A   Overcast
3:55 PM 32.0 °F 23.6 °F 26.6 °F 80% 30.00 in 5.0 mi NNE 10.4 mph - N/A Rain Light Rain
4:15 PM 32.0 °F 24.2 °F 26.6 °F 80% 30.02 in 3.0 mi North 9.2 mph - N/A Rain Rain
4:35 PM 32.0 °F 25.6 °F 28.4 °F 87% 30.02 in 1.8 mi North 6.9 mph - N/A Rain Rain
4:55 PM 32.0 °F 24.2 °F 28.4 °F 87% 30.00 in 3.0 mi North 9.2 mph - N/A Rain Light Rain
5:15 PM 32.0 °F 23.0 °F 30.2 °F 93% 29.99 in 2.5 mi North 11.5 mph - N/A Rain Rain
5:35 PM 30.2 °F 19.8 °F 30.2 °F 100% 29.97 in 2.5 mi North 13.8 mph 18.4 mph N/A Rain Light Freezing Rain
5:55 PM 30.2 °F - 28.4 °F 93% 29.97 in 3.0 mi Calm Calm - N/A Rain Light Freezing Rain
6:15 PM 30.2 °F - 28.4 °F 93% 29.98 in 2.5 mi Calm Calm - N/A Snow Light Snow
6:35 PM 28.4 °F - 28.4 °F 100% 30.00 in 1.0 mi Calm Calm - N/A Snow Light Snow
6:55 PM 28.4 °F - 28.4 °F 100% 30.00 in 1.5 mi Calm Calm - N/A   Overcast
7:15 PM 28.4 °F - 26.6 °F 93% 30.01 in 1.0 mi Calm Calm - N/A Snow Light Snow
7:35 PM 28.4 °F - 26.6 °F 93% 30.03 in 1.5 mi Calm Calm - N/A Snow Light Snow
7:55 PM 28.4 °F - 26.6 °F 93% 30.00 in 1.5 mi Calm Calm - N/A Snow Light Snow
8:15 PM 28.4 °F - 26.6 °F 93% 30.00 in 1.2 mi Calm Calm - N/A Snow Light Snow
8:35 PM 28.4 °F - 26.6 °F 93% 30.02 in 1.2 mi Calm Calm - N/A Snow Light Snow
8:55 PM 28.4 °F - 26.6 °F 93% 30.00 in 3.0 mi Calm Calm - N/A Snow Light Snow
9:15 PM 28.4 °F - 24.8 °F 86% 30.02 in 5.0 mi Calm Calm - N/A Snow Light Snow
9:35 PM 28.4 °F - 23.0 °F 80% 30.01 in 6.0 mi Calm Calm - N/A Snow Light Snow
9:55 PM 26.6 °F - 23.0 °F 86% 30.03 in 10.0 mi Calm Calm - N/A Rain Light Freezing Rain
10:15 PM 26.6 °F - 21.2 °F 80% 30.02 in 10.0 mi Calm Calm - N/A   Overcast
10:35 PM 26.6 °F - 21.2 °F 80% 30.02 in 10.0 mi Calm Calm - N/A   Overcast
10:55 PM 28.4 °F - 21.2 °F 74% 30.03 in 10.0 mi Calm Calm - N/A   Overcast
11:15 PM 26.6 °F - 21.2 °F 80% 30.03 in 10.0 mi Calm Calm - N/A   Overcast
11:35 PM 26.6 °F - 21.2 °F 80% 30.02 in 10.0 mi Calm Calm - N/A   Overcast
11:55 PM 26.6 °F - 19.4 °F 74% 30.03 in 10.0 mi Calm Calm - N/A   Overcast